AO-Echo - Orbit

View from above orbital plane
View from above orbital plane
View from above satellite
View from above satellite

Ground track
Ground track

The orbit data is extracted from the following two-line orbital elements,

1 28375U 04025K   13142.50265362  .00000237  00000-0  83104-4 0  5635
2 28375 098.1992 098.9956 0084787 093.9681 026.0878 14.41113720467632
Epoch (UTC): 22 May 2013 12:03:49
Eccentricity: 0.0084787
inclination: 98.1992°
perigee height: 694 km
apogee height: 815 km
right ascension of ascending node: 98.9956°
argument of perigee: 93.9681°
revolutions per day: 14.41113720
mean anomaly at epoch: 26.0878°
orbit number at epoch: 46763

The dashed part of the orbit path shows where the satellite is in the earth's shadow,  

Developed and maintained by Chris Peat, Heavens-Above GmbH. Please read the updated FAQ before sending e-mail. Imprint. DLR